sat.trackr.live / text

‹ back to catalog

STARLINK-11159 [DTC]

NORAD 60905 · 2024-154C

PAYLOAD ACTIVE UNKNOWN

§ Identity

Operator
Country
US
Launch date
2024-08-31
Launch site
AFETR
Launch vehicle
Mass (kg)
RCS (m²)

Purposes: comms

External: N2YO · Heavens-Above · Gunter

§ Orbital elements

Epoch: 2026-05-25T04:17:09.876192Z

Period
91.74 min
Inclination
53.1583°
Eccentricity
0.0000933
Mean motion
15.69692977 rev/d
Perigee alt
359.1 km
Apogee alt
360.4 km
Semi-major
6,737.9 km
B*
4.1658e-5
RAAN
114.5103°
Arg perigee
74.1081°
Mean anomaly
286.0039°
Rev number
10,052

§ Raw data

STARLINK-11159 [DTC]1 60905U 24154C   26145.17858653  .00004458  00000+0  41658-4 0  99952 60905  53.1583 114.5103 0000933  74.1081 286.0039 15.69692977100525

JSON: /api/v1/satellites/60905 · /tle

For live sub-satellite position, see the globe view (requires WebGL).

§ Visibility from observer

Set your observer location to see the next 7 days of passes ≥ 10°. The values pass through the URL so the page stays shareable.

No JS? Fill the form by hand. The geolocation button needs JavaScript.